,,PA_Meas_PMT16A,,PR_Meas_QMR101_102,,RH_Meas_QMH101,,SR_Meas_QMS101,,TA_Meas_QMH101,,GenWind,,GenWind,
time,status,PA,status,PR,status,RH,status,SR,status,TA,status,DirAvg,status,SpdAvg,
2016-12-21, 15:23:04,VALID,918.467,VALID,0,INVALID,119.909,VALID,142.467,VALID,19.7043,VALID,336,VALID,1.32734,
2016-12-21, 15:29:04,VALID,918.462,VALID,0,INVALID,119.81,VALID,140.533,VALID,19.8018,VALID,266,VALID,0.652344,
2016-12-21, 15:31:04,VALID,918.387,VALID,0,INVALID,119.871,VALID,177.17,VALID,19.8213,VALID,22,VALID,1.4832,
2016-12-21, 15:33:04,VALID,918.424,VALID,0,INVALID,119.81,VALID,173.303,VALID,19.8993,VALID,21,VALID,1.52969,
2016-12-21, 15:34:04,VALID,918.34,VALID,0,INVALID,119.779,VALID,172.013,VALID,19.9383,VALID,22,VALID,1.17773,
2016-12-21, 15:35:04,VALID,918.406,VALID,0,INVALID,119.703,VALID,185.873,VALID,19.9968,VALID,359,VALID,0.687109,
2016-12-21, 15:45:04,VALID,918.507,VALID,0,INVALID,119.733,VALID,156.649,VALID,20.1334,VALID,8,VALID,1.32383,
2016-12-21, 15:46:04,VALID,918.496,VALID,0,INVALID,119.711,VALID,158.691,VALID,20.1724,VALID,3,VALID,1.28281,
2016-12-21, 15:47:04,VALID,918.539,VALID,0,INVALID,119.741,VALID,144.616,VALID,20.1919,VALID,15,VALID,1.40273,
2016-12-21, 15:53:04,VALID,918.579,VALID,0,INVALID,120.008,VALID,154.178,VALID,20.1334,VALID,324,VALID,0,
2016-12-21, 15:54:04,VALID,918.582,VALID,0,INVALID,119.97,VALID,192.212,VALID,20.1724,VALID,312,VALID,0.619141,
2016-12-21, 15:55:04,VALID,918.551,VALID,0,INVALID,120.069,VALID,225.841,VALID,20.1513,VALID,5,VALID,1.82656,
2016-12-21, 15:56:04,VALID,918.579,VALID,0,INVALID,119.985,VALID,326.729,VALID,20.2114,VALID,244,VALID,1.04961,
2016-12-21, 15:57:04,VALID,918.607,VALID,0,INVALID,119.893,VALID,260.437,VALID,20.2684,VALID,160,VALID,0,
2016-12-21, 15:58:04,VALID,918.51,VALID,0,INVALID,119.878,VALID,222.081,VALID,20.3074,VALID,4,VALID,1.41445,
2016-12-21, 15:59:04,VALID,918.592,VALID,0,INVALID,120.015,VALID,186.088,VALID,20.3479,VALID,20,VALID,2.18906,
2016-12-21, 16:00:04,VALID,918.64,VALID,0,INVALID,120.107,VALID,204.246,VALID,20.3269,VALID,8,VALID,1.20195,
2016-12-21, 16:01:04,VALID,918.628,VALID,0,INVALID,120.32,VALID,197.907,VALID,20.3269,VALID,18,VALID,2.30742,
2016-12-21, 16:02:04,VALID,918.622,VALID,0,INVALID,120.32,VALID,224.982,VALID,20.3464,VALID,219,VALID,1.34492,
2016-12-21, 16:03:04,VALID,918.637,VALID,0,INVALID,120.29,VALID,193.824,VALID,20.4064,VALID,21,VALID,2.07734,
2016-12-21, 16:04:04,VALID,918.664,VALID,0,INVALID,120.198,VALID,181.146,VALID,20.4634,VALID,355,VALID,0.694141,
2016-12-21, 16:05:04,VALID,918.64,VALID,0,INVALID,120.419,VALID,184.799,VALID,20.4634,VALID,356,VALID,2.2832,
2016-12-21, 16:06:04,VALID,918.665,VALID,0,INVALID,120.671,VALID,248.619,VALID,20.3838,VALID,31,VALID,2.30273,
2016-12-21, 16:07:04,VALID,918.68,VALID,0,INVALID,120.602,VALID,252.379,VALID,20.4634,VALID,348,VALID,0.916406,
2016-12-21, 16:08:04,VALID,918.646,VALID,0,INVALID,120.496,VALID,207.469,VALID,20.5414,VALID,25,VALID,1.36836,
2016-12-21, 16:09:04,VALID,918.643,VALID,0,INVALID,120.458,VALID,242.602,VALID,20.5999,VALID,15,VALID,1.05938,
2016-12-21, 16:10:04,VALID,918.622,VALID,0,INVALID,120.427,VALID,230.998,VALID,20.6975,VALID,29,VALID,0.933984,
2016-12-21, 16:11:04,VALID,918.619,VALID,0,INVALID,120.496,VALID,313.513,VALID,20.7365,VALID,316,VALID,0.982813,
2016-12-21, 16:12:04,VALID,918.656,VALID,0,INVALID,120.694,VALID,344.671,VALID,20.717,VALID,31,VALID,0.482031,
2016-12-21, 16:13:04,VALID,918.674,VALID,0,INVALID,121.014,VALID,171.046,VALID,20.6959,VALID,299,VALID,1.4875,
2016-12-21, 16:14:04,VALID,918.653,VALID,0,INVALID,121.045,VALID,152.029,VALID,20.756,VALID,12,VALID,1.21875,
2016-12-21, 16:15:04,VALID,918.678,VALID,0,INVALID,120.991,VALID,170.617,VALID,20.8129,VALID,261,VALID,0,
2016-12-21, 16:29:04,VALID,918.945,VALID,0,INVALID,123.659,VALID,183.724,VALID,20.5625,VALID,340,VALID,0.953125,
2016-12-21, 16:30:04,VALID,918.956,VALID,0,INVALID,124.033,VALID,162.881,VALID,20.5024,VALID,284,VALID,0.796094,
2016-12-21, 16:31:04,VALID,918.976,VALID,0,INVALID,124.094,VALID,167.178,VALID,20.5414,VALID,287,VALID,0,
2016-12-21, 16:32:04,VALID,918.926,VALID,0,INVALID,124.102,VALID,191.46,VALID,20.6194,VALID,350,VALID,0.00351562,
2016-12-21, 16:33:04,VALID,918.928,VALID,0,INVALID,124.231,VALID,158.905,VALID,20.6569,VALID,3,VALID,1.4375,
2016-12-21, 16:34:04,VALID,918.964,VALID,0,INVALID,124.201,VALID,158.153,VALID,20.7544,VALID,290,VALID,0,
2016-12-21, 16:37:04,VALID,918.935,VALID,0,INVALID,125.055,VALID,171.691,VALID,20.795,VALID,209,VALID,0,
2016-12-21, 16:38:04,VALID,918.932,VALID,0,INVALID,125.268,VALID,203.601,VALID,20.8145,VALID,285,VALID,0.0480469,
2016-12-21, 16:39:04,VALID,918.913,VALID,0,INVALID,125.924,VALID,210.907,VALID,20.7365,VALID,335,VALID,1.77891,
2016-12-21, 16:40:04,VALID,918.897,VALID,0,INVALID,126.168,VALID,202.527,VALID,20.756,VALID,323,VALID,0.639453,
2016-12-21, 16:41:04,VALID,918.902,VALID,0,INVALID,126.724,VALID,220.254,VALID,20.717,VALID,249,VALID,0.703906,
2016-12-21, 16:42:04,VALID,918.895,VALID,0,INVALID,126.838,VALID,169.22,VALID,20.7755,VALID,246,VALID,0.128516,
2016-12-21, 16:43:04,VALID,918.87,VALID,0,INVALID,127.265,VALID,166.749,VALID,20.7365,VALID,272,VALID,1.39453,
2016-12-21, 16:44:04,VALID,918.923,VALID,0,INVALID,127.006,VALID,227.775,VALID,20.891,VALID,335,VALID,0.106641,
2016-12-21, 16:45:04,VALID,918.869,VALID,0,INVALID,127.044,VALID,252.272,VALID,20.9901,VALID,6,VALID,1.10195,
2016-12-21, 16:46:04,VALID,918.878,VALID,0,INVALID,127.517,VALID,234.222,VALID,20.8925,VALID,305,VALID,1.45781,
2016-12-21, 16:47:04,VALID,918.911,VALID,0,INVALID,127.486,VALID,227.238,VALID,20.9706,VALID,226,VALID,1.33867,
2016-12-21, 16:48:04,VALID,918.858,VALID,0,INVALID,127.845,VALID,231.321,VALID,20.873,VALID,303,VALID,0.615625,
2016-12-21, 16:49:04,VALID,918.893,VALID,0,INVALID,127.807,VALID,217.676,VALID,20.891,VALID,20,VALID,1.36563,
2016-12-21, 16:50:04,VALID,918.901,VALID,0,INVALID,127.814,VALID,209.618,VALID,20.9316,VALID,259,VALID,0.178516,
2016-12-21, 16:51:04,VALID,918.886,VALID,0,INVALID,127.776,VALID,240.991,VALID,20.9706,VALID,304,VALID,0,
2016-12-21, 16:52:04,VALID,918.869,VALID,0,INVALID,127.768,VALID,273.867,VALID,20.9901,VALID,266,VALID,0.560156,
2016-12-21, 16:53:04,VALID,918.87,VALID,0,INVALID,127.723,VALID,284.612,VALID,21.0291,VALID,291,VALID,0.614062,
2016-12-21, 16:54:04,VALID,918.832,VALID,0,INVALID,127.631,VALID,261.297,VALID,21.1657,VALID,326,VALID,0,
2016-12-21, 16:55:04,VALID,918.835,VALID,0,INVALID,127.631,VALID,247.115,VALID,21.2632,VALID,3,VALID,0,
2016-12-21, 16:56:04,VALID,918.849,VALID,0,INVALID,127.616,VALID,201.56,VALID,21.3608,VALID,12,VALID,0,
2016-12-21, 16:57:04,VALID,918.866,VALID,0,INVALID,127.707,VALID,205.965,VALID,21.4193,VALID,12,VALID,0,
2016-12-21, 16:58:04,VALID,918.839,VALID,0,INVALID,127.753,VALID,266.669,VALID,21.4973,VALID,12,VALID,0,
2016-12-21, 16:59:04,VALID,918.862,VALID,0,INVALID,127.784,VALID,247.115,VALID,21.5152,VALID,41,VALID,0,
2016-12-21, 17:00:04,VALID,918.835,VALID,0,INVALID,127.807,VALID,216.816,VALID,21.6323,VALID,29,VALID,1.29492,
2016-12-21, 17:01:04,VALID,918.848,VALID,0,INVALID,127.707,VALID,228.527,VALID,21.6128,VALID,280,VALID,0.865625,
2016-12-21, 17:02:04,VALID,918.857,VALID,0,INVALID,127.052,VALID,249.371,VALID,21.5168,VALID,352,VALID,0.20625,
2016-12-21, 17:03:04,VALID,918.828,VALID,0,INVALID,127.059,VALID,254.958,VALID,21.5168,VALID,60,VALID,0.119922,
2016-12-21, 17:04:04,VALID,918.853,VALID,0,INVALID,127.174,VALID,248.082,VALID,21.5542,VALID,273,VALID,0,
2016-12-21, 17:05:04,VALID,918.857,VALID,0,INVALID,127.235,VALID,222.94,VALID,21.5526,VALID,15,VALID,0,
2016-12-21, 17:06:04,VALID,918.872,VALID,0,INVALID,127.418,VALID,202.741,VALID,21.6713,VALID,17,VALID,0,
2016-12-21, 17:07:04,VALID,918.857,VALID,0,INVALID,127.349,VALID,167.393,VALID,21.7315,VALID,22,VALID,0,
2016-12-21, 17:10:04,VALID,918.862,VALID,0,INVALID,127.006,VALID,168.575,VALID,21.6908,VALID,316,VALID,0,
2016-12-21, 17:11:04,VALID,918.862,VALID,0,INVALID,126.808,VALID,198.981,VALID,21.6518,VALID,276,VALID,0,
2016-12-21, 17:12:04,VALID,918.802,VALID,0,INVALID,126.716,VALID,222.296,VALID,21.6518,VALID,276,VALID,0,
2016-12-21, 17:13:04,VALID,918.828,VALID,0,INVALID,127.029,VALID,226.486,VALID,21.7282,VALID,13,VALID,0,
2016-12-21, 17:14:04,VALID,918.793,VALID,0,INVALID,127.197,VALID,222.511,VALID,21.8079,VALID,17,VALID,0,
2016-12-21, 17:15:04,VALID,918.835,VALID,0,INVALID,127.212,VALID,214.023,VALID,21.8469,VALID,9,VALID,0,
2016-12-21, 17:16:04,VALID,918.8,VALID,0,INVALID,126.945,VALID,241.957,VALID,21.8079,VALID,254,VALID,0,
2016-12-21, 17:17:04,VALID,918.79,VALID,0,INVALID,126.594,VALID,285.149,VALID,21.7087,VALID,257,VALID,0,
2016-12-21, 17:18:04,VALID,918.771,VALID,0,INVALID,126.594,VALID,311.579,VALID,21.6713,VALID,243,VALID,0,
2016-12-21, 17:19:04,VALID,918.786,VALID,0,INVALID,126.854,VALID,343.597,VALID,21.5916,VALID,232,VALID,0,
2016-12-21, 17:20:04,VALID,918.793,VALID,0,INVALID,127.12,VALID,355.2,VALID,21.6144,VALID,230,VALID,0,
2016-12-21, 17:21:04,VALID,918.805,VALID,0,INVALID,127.41,VALID,363.259,VALID,21.6501,VALID,282,VALID,0,
2016-12-21, 17:22:04,VALID,918.786,VALID,0,INVALID,127.532,VALID,365.192,VALID,21.7087,VALID,326,VALID,0,
2016-12-21, 17:23:04,VALID,918.798,VALID,0,INVALID,127.441,VALID,329.629,VALID,21.7103,VALID,224,VALID,0,
2016-12-21, 17:24:04,VALID,918.755,VALID,0,INVALID,127.189,VALID,313.406,VALID,21.6891,VALID,287,VALID,0,
2016-12-21, 17:25:04,VALID,918.771,VALID,0,INVALID,126.861,VALID,289.339,VALID,21.6518,VALID,287,VALID,0,
2016-12-21, 17:26:04,VALID,918.788,VALID,0,INVALID,127.044,VALID,232.18,VALID,21.6713,VALID,273,VALID,0,
2016-12-21, 17:27:04,VALID,918.779,VALID,0,INVALID,127.075,VALID,174.484,VALID,21.6501,VALID,224,VALID,0,
2016-12-21, 17:28:04,VALID,918.802,VALID,0,INVALID,127.425,VALID,185.443,VALID,21.7087,VALID,242,VALID,0,
2016-12-21, 17:29:04,VALID,918.771,VALID,0,INVALID,127.227,VALID,281.173,VALID,21.6501,VALID,244,VALID,2.01016,
2016-12-21, 17:30:04,VALID,918.779,VALID,0,INVALID,126.8,VALID,304.703,VALID,21.4941,VALID,254,VALID,2.79336,
2016-12-21, 17:31:04,VALID,918.74,VALID,0,INVALID,126.594,VALID,259.9,VALID,21.416,VALID,244,VALID,2.45859,
2016-12-21, 17:32:04,VALID,918.771,VALID,0,INVALID,127.136,VALID,264.52,VALID,21.455,VALID,257,VALID,1.28633,
2016-12-21, 17:33:04,VALID,918.79,VALID,0,INVALID,127.258,VALID,283.215,VALID,21.4355,VALID,260,VALID,0.73125,
2016-12-21, 17:34:04,VALID,918.779,VALID,0,INVALID,127.517,VALID,255.388,VALID,21.4941,VALID,267,VALID,0.460547,
2016-12-21, 17:35:04,VALID,918.759,VALID,0,INVALID,127.585,VALID,235.081,VALID,21.5737,VALID,294,VALID,0.253516,
2016-12-21, 17:36:04,VALID,918.778,VALID,0,INVALID,127.715,VALID,211.659,VALID,21.5916,VALID,253,VALID,0.951953,
2016-12-21, 17:37:04,VALID,918.763,VALID,0,INVALID,127.433,VALID,166.319,VALID,21.455,VALID,291,VALID,0.437891,
2016-12-21, 17:38:04,VALID,918.804,VALID,0,INVALID,127.479,VALID,185.766,VALID,21.4746,VALID,284,VALID,0,
2016-12-21, 17:39:04,VALID,918.804,VALID,0,INVALID,127.578,VALID,224.445,VALID,21.5526,VALID,317,VALID,0,
2016-12-21, 17:40:04,VALID,918.763,VALID,0,INVALID,127.654,VALID,288.909,VALID,21.6518,VALID,26,VALID,0,
2016-12-21, 17:41:04,VALID,918.781,VALID,0,INVALID,127.707,VALID,303.736,VALID,21.7493,VALID,77,VALID,0,
2016-12-21, 17:42:04,VALID,918.793,VALID,0,INVALID,127.746,VALID,222.94,VALID,21.8681,VALID,329,VALID,0,
2016-12-21, 17:43:04,VALID,918.763,VALID,0,INVALID,127.715,VALID,185.336,VALID,21.9461,VALID,44,VALID,0,
2016-12-21, 17:44:04,VALID,918.75,VALID,0,INVALID,127.662,VALID,185.658,VALID,21.9444,VALID,23,VALID,0,
2016-12-21, 17:46:04,VALID,918.781,VALID,0,INVALID,127.326,VALID,180.179,VALID,21.9835,VALID,328,VALID,0.676562,
2016-12-21, 17:47:04,VALID,918.716,VALID,0,INVALID,127.082,VALID,193.287,VALID,21.9835,VALID,317,VALID,0.00664063,
2016-12-21, 17:48:04,VALID,918.703,VALID,0,INVALID,126.877,VALID,206.932,VALID,21.9835,VALID,16,VALID,0,
2016-12-21, 17:49:04,VALID,918.729,VALID,0,INVALID,126.93,VALID,197.262,VALID,22.0225,VALID,321,VALID,0,
2016-12-21, 17:50:04,VALID,918.684,VALID,0,INVALID,125.619,VALID,195.65,VALID,21.9054,VALID,292,VALID,1.22461,
2016-12-21, 17:51:04,VALID,918.68,VALID,0,INVALID,126.236,VALID,203.279,VALID,21.9054,VALID,277,VALID,0,
2016-12-21, 17:52:04,VALID,918.67,VALID,0,INVALID,126.556,VALID,226.379,VALID,21.9249,VALID,20,VALID,1.47539,
2016-12-21, 17:53:04,VALID,918.659,VALID,0,INVALID,126.777,VALID,212.519,VALID,21.964,VALID,310,VALID,0.629687,
2016-12-21, 17:54:04,VALID,918.688,VALID,0,INVALID,126.549,VALID,168.038,VALID,21.9444,VALID,24,VALID,0,
2016-12-21, 17:55:04,VALID,918.679,VALID,0,INVALID,126.488,VALID,183.832,VALID,21.9835,VALID,128,VALID,0,
2016-12-21, 17:56:04,VALID,918.623,VALID,0,INVALID,126.038,VALID,184.799,VALID,21.9851,VALID,80,VALID,0,
2016-12-21, 17:57:04,VALID,918.584,VALID,0,INVALID,126.343,VALID,193.609,VALID,22.042,VALID,53,VALID,0,
2016-12-21, 17:58:04,VALID,918.617,VALID,0,INVALID,125.763,VALID,182.972,VALID,22.0225,VALID,260,VALID,0.0667969,
2016-12-21, 17:59:04,VALID,918.578,VALID,0,INVALID,125.1,VALID,151.599,VALID,21.9249,VALID,299,VALID,0.479297,
2016-12-21, 18:00:04,VALID,918.611,VALID,0,INVALID,126.495,VALID,149.666,VALID,21.9835,VALID,32,VALID,0.535156,
2016-12-21, 18:01:04,VALID,918.598,VALID,0,INVALID,126.114,VALID,153.748,VALID,21.9249,VALID,186,VALID,0,
2016-12-21, 18:05:04,VALID,918.604,VALID,0,INVALID,125.969,VALID,165.674,VALID,21.9835,VALID,219,VALID,0,
2016-12-21, 18:08:04,VALID,918.572,VALID,0,INVALID,126.381,VALID,178.675,VALID,21.9249,VALID,228,VALID,0,
2016-12-21, 18:09:04,VALID,918.561,VALID,0,INVALID,126.785,VALID,201.989,VALID,21.9444,VALID,201,VALID,0,
2016-12-21, 18:10:04,VALID,918.512,VALID,0,INVALID,126.938,VALID,224.015,VALID,22.003,VALID,41,VALID,0,
2016-12-21, 18:11:04,VALID,918.553,VALID,0,INVALID,127.037,VALID,264.95,VALID,22.042,VALID,30,VALID,0,
2016-12-21, 18:12:04,VALID,918.505,VALID,0,INVALID,127.197,VALID,278.702,VALID,22.1005,VALID,105,VALID,0,
2016-12-21, 18:13:04,VALID,918.505,VALID,0,INVALID,126.549,VALID,290.413,VALID,22.0615,VALID,194,VALID,0,
2016-12-21, 18:14:04,VALID,918.478,VALID,0,INVALID,126.755,VALID,239.809,VALID,22.1574,VALID,57,VALID,0,
2016-12-21, 18:15:04,VALID,918.492,VALID,0,INVALID,126.549,VALID,267.851,VALID,22.2176,VALID,269,VALID,0,
2016-12-21, 18:16:04,VALID,918.482,VALID,0,INVALID,125.992,VALID,466.617,VALID,22.2567,VALID,134,VALID,0,
2016-12-21, 18:17:04,VALID,918.485,VALID,0,INVALID,117.584,VALID,523.668,VALID,22.2159,VALID,234,VALID,0,
2016-12-21, 18:18:04,VALID,918.462,VALID,0,INVALID,125.367,VALID,420.525,VALID,22.3152,VALID,316,VALID,0.0289063,
2016-12-21, 18:19:04,VALID,918.454,VALID,0,INVALID,126.335,VALID,437.178,VALID,22.4696,VALID,10,VALID,0,
2016-12-21, 18:20:04,VALID,918.486,VALID,0,INVALID,121.342,VALID,458.237,VALID,22.4696,VALID,6,VALID,1.70195,
2016-12-21, 18:21:04,VALID,918.458,VALID,0,INVALID,121.815,VALID,435.566,VALID,22.5672,VALID,12,VALID,1.92539,
2016-12-21, 18:22:04,VALID,918.419,VALID,0,INVALID,118.338,VALID,479.832,VALID,22.647,VALID,19,VALID,1.2293,
2016-12-21, 18:23:04,VALID,918.437,VALID,0,INVALID,124.704,VALID,349.613,VALID,22.7623,VALID,5,VALID,0.130469,
2016-12-21, 18:24:04,VALID,918.404,VALID,0,INVALID,116.539,VALID,279.454,VALID,22.8616,VALID,228,VALID,0,
2016-12-21, 18:25:04,VALID,918.428,VALID,0,VALID,100.461,VALID,231.321,VALID,22.8209,VALID,336,VALID,0.625781,
2016-12-21, 18:26:04,VALID,918.412,VALID,0,VALID,103.518,VALID,242.602,VALID,22.8209,VALID,18,VALID,0.7625,
2016-12-21, 18:27:04,VALID,918.416,VALID,0,INVALID,109.381,VALID,252.057,VALID,22.8404,VALID,56,VALID,0,
2016-12-21, 18:28:04,VALID,918.396,VALID,0,INVALID,113.658,VALID,288.479,VALID,22.8794,VALID,303,VALID,0,
2016-12-21, 18:29:04,VALID,918.404,VALID,0,INVALID,118.613,VALID,286.653,VALID,22.8989,VALID,12,VALID,0,
2016-12-21, 18:30:04,VALID,918.4,VALID,0,INVALID,118.521,VALID,270.967,VALID,22.9397,VALID,359,VALID,0,
2016-12-21, 18:31:04,VALID,918.373,VALID,0,INVALID,114.313,VALID,260.008,VALID,22.9575,VALID,4,VALID,0.335156,
2016-12-21, 18:32:04,VALID,918.341,VALID,0,VALID,104,VALID,246.9,VALID,22.8989,VALID,16,VALID,1.21992,
2016-12-21, 18:33:04,VALID,918.349,VALID,0,INVALID,119.276,VALID,227.023,VALID,22.8209,VALID,339,VALID,0,
2016-12-21, 18:34:04,VALID,918.366,VALID,0,INVALID,122.783,VALID,208.114,VALID,22.8404,VALID,14,VALID,0,
2016-12-21, 18:35:04,VALID,918.333,VALID,0,INVALID,122.882,VALID,214.023,VALID,22.8794,VALID,28,VALID,0,
2016-12-21, 18:36:04,VALID,918.374,VALID,0,INVALID,112.186,VALID,250.553,VALID,22.8209,VALID,49,VALID,0,
2016-12-21, 18:37:04,VALID,918.319,VALID,0,INVALID,114.504,VALID,259.041,VALID,22.8209,VALID,35,VALID,0,
2016-12-21, 18:38:04,VALID,918.318,VALID,0,INVALID,113.093,VALID,224.982,VALID,22.8404,VALID,25,VALID,0,
2016-12-21, 18:39:04,VALID,918.296,VALID,0,INVALID,118.674,VALID,212.196,VALID,22.7623,VALID,31,VALID,0,
2016-12-21, 18:40:04,VALID,918.322,VALID,0,INVALID,120.999,VALID,188.344,VALID,22.6647,VALID,270,VALID,0,
2016-12-21, 18:41:04,VALID,918.291,VALID,0,INVALID,117.957,VALID,178.997,VALID,22.5884,VALID,16,VALID,0,
2016-12-21, 18:42:04,VALID,918.298,VALID,0,INVALID,122.966,VALID,191.03,VALID,22.5281,VALID,359,VALID,0,
2016-12-21, 18:43:04,VALID,918.307,VALID,0,INVALID,124.414,VALID,191.353,VALID,22.5867,VALID,33,VALID,0,
2016-12-21, 18:44:04,VALID,918.264,VALID,0,INVALID,123.156,VALID,191.03,VALID,22.5477,VALID,19,VALID,0,
2016-12-21, 18:45:04,VALID,918.29,VALID,0,INVALID,119.169,VALID,187.377,VALID,22.4501,VALID,346,VALID,0,
2016-12-21, 18:46:04,VALID,918.254,VALID,0,INVALID,123.255,VALID,180.716,VALID,22.4128,VALID,20,VALID,0,
2016-12-21, 18:47:04,VALID,918.205,VALID,0,INVALID,121.563,VALID,182.328,VALID,22.255,VALID,18,VALID,1.09336,
2016-12-21, 18:48:04,VALID,918.253,VALID,0,INVALID,122.806,VALID,175.559,VALID,22.1379,VALID,315,VALID,0,
2016-12-21, 18:49:04,VALID,918.239,VALID,0,INVALID,123.202,VALID,187.377,VALID,22.0208,VALID,324,VALID,1.54648,
2016-12-21, 18:50:04,VALID,918.229,VALID,0,INVALID,124.765,VALID,200.593,VALID,22.0598,VALID,5,VALID,1.55195,
2016-12-21, 18:51:04,VALID,918.257,VALID,0,INVALID,124.445,VALID,203.386,VALID,22.0598,VALID,13,VALID,0,
2016-12-21, 18:52:04,VALID,918.234,VALID,0,INVALID,124.513,VALID,201.13,VALID,22.1184,VALID,314,VALID,0,
2016-12-21, 18:53:04,VALID,918.235,VALID,0,INVALID,123.034,VALID,162.021,VALID,22.0794,VALID,268,VALID,0,
2016-12-21, 18:54:04,VALID,918.23,VALID,0,INVALID,123.431,VALID,152.889,VALID,22.0989,VALID,275,VALID,0,
2016-12-21, 18:55:04,VALID,918.29,VALID,0,INVALID,124.628,VALID,153.104,VALID,22.1964,VALID,355,VALID,0,
2016-12-21, 18:58:04,VALID,918.283,VALID,0,INVALID,124.727,VALID,156.112,VALID,22.2354,VALID,341,VALID,0,
2016-12-21, 19:03:04,VALID,918.207,VALID,0,INVALID,124.551,VALID,198.121,VALID,22.1184,VALID,231,VALID,0.528125,
2016-12-21, 19:04:04,VALID,918.197,VALID,0,INVALID,124.46,VALID,192.964,VALID,22.1184,VALID,217,VALID,0,
2016-12-21, 19:05:04,VALID,918.185,VALID,0,INVALID,125.016,VALID,164.815,VALID,22.1574,VALID,2,VALID,0,
2016-12-21, 19:06:04,VALID,918.156,VALID,0,INVALID,124.933,VALID,163.74,VALID,22.1769,VALID,88,VALID,0,
2016-12-21, 19:07:04,VALID,918.162,VALID,0,INVALID,124.437,VALID,206.609,VALID,22.1964,VALID,112,VALID,0,
2016-12-21, 19:08:04,VALID,918.15,VALID,0,INVALID,123.964,VALID,225.412,VALID,22.2159,VALID,304,VALID,0,
2016-12-21, 19:09:04,VALID,918.137,VALID,0,INVALID,123.964,VALID,211.337,VALID,22.1964,VALID,1,VALID,1.32813,
2016-12-21, 19:10:04,VALID,918.106,VALID,0,INVALID,124.315,VALID,226.056,VALID,22.1574,VALID,9,VALID,1.74805,
2016-12-21, 19:11:04,VALID,918.086,VALID,0,INVALID,124.376,VALID,246.9,VALID,22.1591,VALID,8,VALID,0.777344,
2016-12-21, 19:12:04,VALID,918.087,VALID,0,INVALID,125.161,VALID,221.114,VALID,22.2354,VALID,19,VALID,0,
2016-12-21, 19:13:04,VALID,918.092,VALID,0,INVALID,125.123,VALID,178.245,VALID,22.2923,VALID,1,VALID,0,
2016-12-21, 19:14:04,VALID,918.051,VALID,0,INVALID,124.994,VALID,177.385,VALID,22.3916,VALID,23,VALID,0.4875,
2016-12-21, 19:15:04,VALID,918.057,VALID,0,INVALID,123.766,VALID,255.71,VALID,22.333,VALID,24,VALID,0.684375,
2016-12-21, 19:16:04,VALID,918.043,VALID,0,INVALID,125.192,VALID,369.383,VALID,22.4501,VALID,348,VALID,0.00585938,
2016-12-21, 19:17:04,VALID,917.947,VALID,0,INVALID,123.804,VALID,345.101,VALID,22.4891,VALID,28,VALID,0.246875,
2016-12-21, 19:18:04,VALID,917.925,VALID,0,INVALID,119.848,VALID,297.397,VALID,22.4306,VALID,348,VALID,0.391016,
2016-12-21, 19:19:04,VALID,917.922,VALID,0,INVALID,118.193,VALID,264.735,VALID,22.372,VALID,283,VALID,0,
2016-12-21, 19:20:04,VALID,917.886,VALID,0,INVALID,122.668,VALID,295.141,VALID,22.333,VALID,339,VALID,0,
2016-12-21, 19:21:04,VALID,917.866,VALID,0,INVALID,123.042,VALID,283.43,VALID,22.3916,VALID,254,VALID,0,
2016-12-21, 19:22:04,VALID,917.874,VALID,0,INVALID,124.49,VALID,262.371,VALID,22.4891,VALID,326,VALID,0.009375,
2016-12-21, 19:23:04,VALID,917.806,VALID,0,INVALID,122.219,VALID,243.677,VALID,22.4891,VALID,95,VALID,0,
2016-12-21, 19:24:04,VALID,917.815,VALID,0,INVALID,121.937,VALID,261.082,VALID,22.5086,VALID,269,VALID,0,
2016-12-21, 19:25:04,VALID,917.76,VALID,0,INVALID,120.9,VALID,303.414,VALID,22.5281,VALID,15,VALID,2.59219,
2016-12-21, 19:26:04,VALID,917.784,VALID,0,INVALID,123.675,VALID,370.242,VALID,22.4874,VALID,8,VALID,1.80742,
2016-12-21, 19:27:04,VALID,917.781,VALID,0,INVALID,120.877,VALID,446.955,VALID,22.4501,VALID,346,VALID,0.265625,
2016-12-21, 19:28:04,VALID,917.753,VALID,0,INVALID,122.447,VALID,385.714,VALID,22.4696,VALID,23,VALID,1.55352,
2016-12-21, 19:29:04,VALID,917.722,VALID,0,INVALID,122.912,VALID,297.934,VALID,22.5655,VALID,294,VALID,0.384766,
2016-12-21, 19:30:04,VALID,917.706,VALID,0,INVALID,122.699,VALID,224.015,VALID,22.6062,VALID,16,VALID,0.296484,
2016-12-21, 19:31:04,VALID,917.722,VALID,0,INVALID,121.639,VALID,212.733,VALID,22.6452,VALID,336,VALID,0,
2016-12-21, 19:32:04,VALID,917.7,VALID,0,INVALID,123.057,VALID,206.072,VALID,22.7038,VALID,15,VALID,0,
2016-12-21, 19:33:04,VALID,917.706,VALID,0,INVALID,122.15,VALID,169.757,VALID,22.7411,VALID,195,VALID,0,
2016-12-21, 19:34:04,VALID,917.777,VALID,0,INVALID,119.787,VALID,219.287,VALID,22.7818,VALID,162,VALID,0,
2016-12-21, 19:35:04,VALID,917.714,VALID,0,INVALID,120.046,VALID,276.768,VALID,22.8599,VALID,11,VALID,0,
2016-12-21, 19:36:04,VALID,917.725,VALID,0,INVALID,118.887,VALID,229.602,VALID,22.8989,VALID,33,VALID,0,
2016-12-21, 19:37:04,VALID,917.699,VALID,0,INVALID,121.83,VALID,181.468,VALID,22.9362,VALID,286,VALID,0,
2016-12-21, 19:39:04,VALID,917.69,VALID,0,INVALID,118.331,VALID,159.765,VALID,22.938,VALID,198,VALID,0,
2016-12-21, 19:40:04,VALID,917.659,VALID,0,INVALID,122.18,VALID,163.74,VALID,22.977,VALID,21,VALID,0,
2016-12-21, 19:47:04,VALID,917.574,VALID,0,INVALID,122.813,VALID,168.36,VALID,22.6647,VALID,255,VALID,0,
2016-12-21, 19:48:04,VALID,917.551,VALID,0,INVALID,123.926,VALID,182.22,VALID,22.6647,VALID,12,VALID,0,
2016-12-21, 19:49:04,VALID,917.578,VALID,0,INVALID,124.01,VALID,188.989,VALID,22.6062,VALID,25,VALID,0,
2016-12-21, 19:50:04,VALID,917.517,VALID,0,INVALID,124.971,VALID,202.204,VALID,22.6257,VALID,18,VALID,0.00117188,
2016-12-21, 19:51:04,VALID,917.524,VALID,0,INVALID,125.649,VALID,209.725,VALID,22.6274,VALID,357,VALID,2.3707,
2016-12-21, 19:52:04,VALID,917.5,VALID,0,INVALID,124.734,VALID,211.014,VALID,22.4696,VALID,34,VALID,0.513672,
2016-12-21, 19:53:04,VALID,917.444,VALID,0,INVALID,125.489,VALID,205.965,VALID,22.4696,VALID,17,VALID,0.910547,
2016-12-21, 19:54:04,VALID,917.481,VALID,0,INVALID,125.939,VALID,232.073,VALID,22.4306,VALID,236,VALID,0.0113281,
2016-12-21, 19:55:04,VALID,917.494,VALID,0,INVALID,125.649,VALID,244.321,VALID,22.3525,VALID,29,VALID,0.816406,
2016-12-21, 19:56:04,VALID,917.496,VALID,0,INVALID,126.312,VALID,253.561,VALID,22.3916,VALID,21,VALID,0.269531,
2016-12-21, 19:57:04,VALID,917.443,VALID,0,INVALID,125.977,VALID,282.14,VALID,22.333,VALID,30,VALID,0.281641,